Simultaneous Nadir Overpasses (SNOs) Predictions

Prediction of SNOs between GOES-15 and METOP-A Satellite Orbit:

Table of predicted SNOs for the next 14.0 days since TLE Epoch: 11/14/2014
Index Date Time (GOES-15) GOES-15 Lat,Lon METOP-A Lat,Lon Distance(km) Time Diff (sec)
1 11/15/2014 18:36:24 -0.24,-134.46 0.25,-136.74 259.23 80
2 11/16/2014 18:18:26 -0.25,-134.42 -0.87,-131.75 304.52 80
3 11/18/2014 06:37:26 0.23,-134.28 -0.24,-136.33 234.18 80
4 11/19/2014 06:14:08 0.24,-134.23 0.89,-131.34 328.71 80
5 11/20/2014 18:33:00 -0.23,-134.21 0.14,-135.90 193.26 80
6 11/21/2014 18:15:02 -0.24,-134.15 -0.99,-130.91 369.66 80
7 11/23/2014 06:34:02 0.22,-134.01 -0.11,-135.50 169.94 80
8 11/24/2014 06:10:43 0.23,-133.94 1.02,-130.51 391.96 80
9 11/25/2014 18:29:35
